Satellite: MET-3/5
Catalog number: 21655
Epoch time:      10125.94155857
Element set:     804
Inclination:      082.5561 deg
RA of node:       338.4881 deg
Eccentricity:    0.0014839
Arg of perigee:   094.2761 deg
Mean anomaly:     266.0084 deg
Mean motion:   13.17023450 rev/day
Decay rate:        5.1e-07 rev/day^2
Epoch rev:           90011
Checksum:              288

Satellite: MET-2/21
Catalog number: 22782
Epoch time:      10125.91581131
Element set:    0768
Inclination:      082.5454 deg
RA of node:       285.9782 deg
Eccentricity:    0.0022811
Arg of perigee:   157.7636 deg
Mean anomaly:     202.4523 deg
Mean motion:   13.83643973 rev/day
Decay rate:        4.4e-07 rev/day^2
Epoch rev:           84223
Checksum:              306

Satellite: OKEAN-4
Catalog number: 23317
Epoch time:      10126.07873904
Element set:     223
Inclination:      082.5415 deg
RA of node:       033.1618 deg
Eccentricity:    0.0023137
Arg of perigee:   024.9487 deg
Mean anomaly:     335.2789 deg
Mean motion:   14.82810698 rev/day
Decay rate:       3.55e-06 rev/day^2
Epoch rev:           84021
Checksum:              294

Satellite: NOAA-14
Catalog number: 23455
Epoch time:      10126.31608471
Element set:      46
Inclination:      098.8786 deg
RA of node:       207.3481 deg
Eccentricity:    0.0009463
Arg of perigee:   000.5513 deg
Mean anomaly:     359.5676 deg
Mean motion:   14.13785424 rev/day
Decay rate:        3.9e-07 rev/day^2
Epoch rev:           79158
Checksum:              314

Satellite: NOAA-15
Catalog number: 25338
Epoch time:      10126.30058276
Element set:     366
Inclination:      098.6175 deg
RA of node:       113.9832 deg
Eccentricity:    0.0010272
Arg of perigee:   191.5249 deg
Mean anomaly:     168.5711 deg
Mean motion:   14.24822344 rev/day
Decay rate:       -2.4e-07 rev/day^2
Epoch rev:           62278
Checksum:              295

Satellite: RESURS
Catalog number: 25394
Epoch time:      10125.70308426
Element set:     495
Inclination:      098.3054 deg
RA of node:       146.0935 deg
Eccentricity:    0.0001546
Arg of perigee:   028.6981 deg
Mean anomaly:     331.4273 deg
Mean motion:   14.24198598 rev/day
Decay rate:      -3.91e-06 rev/day^2
Epoch rev:           61430
Checksum:              298

Satellite: FENGYUN1
Catalog number: 25730
Epoch time:      10125.95874208
Element set:      35
Inclination:      098.7853 deg
RA of node:       092.0145 deg
Eccentricity:    0.0024963
Arg of perigee:   028.8422 deg
Mean anomaly:     331.4033 deg
Mean motion:   14.08224792 rev/day
Decay rate:        5.5e-07 rev/day^2
Epoch rev:           56574
Checksum:              292

Satellite: OKEAN-0
Catalog number: 25860
Epoch time:      10126.04635224
Element set:     984
Inclination:      097.8289 deg
RA of node:       100.1858 deg
Eccentricity:    0.0000835
Arg of perigee:   106.6958 deg
Mean anomaly:     253.4359 deg
Mean motion:   14.73636319 rev/day
Decay rate:        9.1e-07 rev/day^2
Epoch rev:           58069
Checksum:              318

Satellite: NOAA-16
Catalog number: 26536
Epoch time:      10126.29350599
Element set:     843
Inclination:      099.1724 deg
RA of node:       142.7732 deg
Eccentricity:    0.0011475
Arg of perigee:   095.2232 deg
Mean anomaly:     265.0216 deg
Mean motion:   14.12557453 rev/day
Decay rate:        6.9e-07 rev/day^2
Epoch rev:           49591
Checksum:              308

Satellite: NOAA-17
Catalog number: 27453
Epoch time:      10126.33383397
Element set:     847
Inclination:      098.4343 deg
RA of node:       178.4557 deg
Eccentricity:    0.0010728
Arg of perigee:   258.6912 deg
Mean anomaly:     101.3096 deg
Mean motion:   14.24154643 rev/day
Decay rate:        6.2e-07 rev/day^2
Epoch rev:           40874
Checksum:              312

Satellite: NOAA-18
Catalog number: 28654
Epoch time:      10126.33160093
Element set:     331
Inclination:      098.9478 deg
RA of node:       072.7223 deg
Eccentricity:    0.0014549
Arg of perigee:   168.1023 deg
Mean anomaly:     192.0499 deg
Mean motion:   14.11353948 rev/day
Decay rate:       4.05e-06 rev/day^2
Epoch rev:           25553
Checksum:              300

Satellite: NOAA-19
Catalog number: 33591
Epoch time:      10126.31053242
Element set:     529
Inclination:      098.7871 deg
RA of node:       069.3270 deg
Eccentricity:    0.0014936
Arg of perigee:   050.4556 deg
Mean anomaly:     309.7925 deg
Mean motion:   14.11050794 rev/day
Decay rate:       2.64e-06 rev/day^2
Epoch rev:            6400
Checksum:              291

/EX
SB KEPS @ AMSAT  $ORB10126.M
Orbital Elements  10126.MISC

HR AMSAT ORBITAL ELEMENTS FOR MANNED AND MISCELLANEOUS SATELLITES
FROM WA5QGD FORT WORTH,TX May 6, 2010
Send Subscribe/unsubscribe to KEPS at http://www.amsat.org/mailman/listinfo/kep
BID: ORB10126.M
TO ALL RADIO AMATEURS BT

Satellite: HUBBLE
Catalog number: 20580
Epoch time:      10124.36202321
Element set:     560
Inclination:      028.4679 deg
RA of node:       165.9513 deg
Eccentricity:    0.0003653
Arg of perigee:   101.8537 deg
Mean anomaly:     258.2463 deg
Mean motion:   15.00964583 rev/day
Decay rate:       6.01e-06 rev/day^2
Epoch rev:           89816
Checksum:              280

